TimeCST,TemperatureF,Dew PointF,Humidity,Sea Level PressureIn,VisibilityMPH,Wind Direction,Wind SpeedMPH,Gust SpeedMPH,PrecipitationIn,Events,Conditions,WindDirDegrees,DateUTC
12:15 AM,48.2,19.4,32,30.10,10.0,South,8.1,-,N/A,,Clear,180,2012-11-25 06:15:00
12:35 AM,48.2,19.4,32,30.09,10.0,South,5.8,-,N/A,,Clear,180,2012-11-25 06:35:00
12:55 AM,46.4,19.4,34,30.09,10.0,South,3.5,-,N/A,,Clear,170,2012-11-25 06:55:00
1:15 AM,46.4,19.4,34,30.08,10.0,South,4.6,-,N/A,,Clear,170,2012-11-25 07:15:00
1:35 AM,46.4,19.4,34,30.08,10.0,South,4.6,-,N/A,,Clear,180,2012-11-25 07:35:00
1:55 AM,44.6,19.4,37,30.07,10.0,South,5.8,-,N/A,,Clear,170,2012-11-25 07:55:00
2:15 AM,44.6,21.2,39,30.06,10.0,South,5.8,-,N/A,,Clear,180,2012-11-25 08:15:00
2:35 AM,44.6,21.2,39,30.05,10.0,South,5.8,-,N/A,,Clear,180,2012-11-25 08:35:00
2:55 AM,44.6,21.2,39,30.05,10.0,South,4.6,-,N/A,,Clear,190,2012-11-25 08:55:00
3:15 AM,44.6,21.2,39,30.05,10.0,SSW,5.8,-,N/A,,Clear,200,2012-11-25 09:15:00
3:35 AM,42.8,21.2,42,30.04,10.0,South,6.9,-,N/A,,Clear,190,2012-11-25 09:35:00
3:55 AM,42.8,21.2,42,30.04,10.0,South,6.9,-,N/A,,Clear,190,2012-11-25 09:55:00
4:15 AM,42.8,23.0,46,30.03,10.0,South,6.9,-,N/A,,Clear,190,2012-11-25 10:15:00
4:35 AM,42.8,23.0,46,30.03,10.0,South,5.8,-,N/A,,Clear,190,2012-11-25 10:35:00
4:55 AM,42.8,23.0,46,30.02,10.0,South,5.8,-,N/A,,Clear,190,2012-11-25 10:55:00
5:15 AM,41.0,24.8,53,30.02,10.0,South,5.8,-,N/A,,Clear,190,2012-11-25 11:15:00
5:35 AM,41.0,24.8,53,30.02,10.0,South,5.8,-,N/A,,Clear,190,2012-11-25 11:35:00
5:55 AM,41.0,24.8,53,30.02,10.0,South,5.8,-,N/A,,Clear,190,2012-11-25 11:55:00
6:15 AM,41.0,24.8,53,30.02,10.0,South,5.8,-,N/A,,Clear,180,2012-11-25 12:15:00
6:35 AM,41.0,26.6,57,30.02,10.0,South,6.9,-,N/A,,Clear,190,2012-11-25 12:35:00
6:55 AM,41.0,26.6,57,30.02,10.0,South,5.8,-,N/A,,Clear,180,2012-11-25 12:55:00
7:15 AM,41.0,28.4,61,30.02,10.0,South,4.6,-,N/A,,Clear,180,2012-11-25 13:15:00
7:35 AM,41.0,28.4,61,30.02,10.0,South,6.9,-,N/A,,Clear,180,2012-11-25 13:35:00
7:55 AM,42.8,28.4,57,30.02,10.0,South,5.8,-,N/A,,Clear,170,2012-11-25 13:55:00
8:15 AM,44.6,28.4,53,30.02,10.0,South,5.8,-,N/A,,Clear,180,2012-11-25 14:15:00
8:35 AM,46.4,30.2,53,30.02,10.0,South,5.8,-,N/A,,Clear,180,2012-11-25 14:35:00
8:55 AM,50.0,30.2,47,30.02,10.0,South,6.9,-,N/A,,Clear,190,2012-11-25 14:55:00
9:15 AM,55.4,32.0,41,30.02,10.0,SSW,10.4,-,N/A,,Clear,200,2012-11-25 15:15:00
9:35 AM,59.0,33.8,39,30.03,10.0,SSW,10.4,-,N/A,,Clear,210,2012-11-25 15:35:00
9:55 AM,60.8,35.6,39,30.02,10.0,SSW,12.7,18.4,N/A,,Clear,210,2012-11-25 15:55:00
10:15 AM,62.6,35.6,37,30.02,10.0,SW,11.5,19.6,N/A,,Clear,220,2012-11-25 16:15:00
10:35 AM,64.4,35.6,34,30.01,10.0,SSW,13.8,-,N/A,,Clear,210,2012-11-25 16:35:00
10:55 AM,64.4,37.4,37,30.00,10.0,SW,12.7,19.6,N/A,,Clear,220,2012-11-25 16:55:00
11:15 AM,68.0,37.4,33,29.99,10.0,SSW,12.7,21.9,N/A,,Clear,200,2012-11-25 17:15:00
11:35 AM,68.0,37.4,33,29.99,10.0,SSW,12.7,19.6,N/A,,Clear,210,2012-11-25 17:35:00
11:55 AM,69.8,37.4,31,29.98,10.0,SSW,12.7,18.4,N/A,,Clear,210,2012-11-25 17:55:00
12:15 PM,71.6,37.4,29,29.97,10.0,SSW,13.8,18.4,N/A,,Clear,210,2012-11-25 18:15:00
12:35 PM,71.6,39.2,31,29.95,10.0,SSW,13.8,20.7,N/A,,Clear,200,2012-11-25 18:35:00
12:55 PM,73.4,41.0,31,29.94,10.0,SSW,10.4,-,N/A,,Clear,210,2012-11-25 18:55:00
1:15 PM,73.4,41.0,31,29.93,10.0,SW,16.1,20.7,N/A,,Clear,220,2012-11-25 19:15:00
1:35 PM,75.2,41.0,29,29.91,10.0,SSW,11.5,18.4,N/A,,Clear,200,2012-11-25 19:35:00
1:55 PM,77.0,41.0,28,29.90,10.0,SSW,11.5,17.3,N/A,,Clear,210,2012-11-25 19:55:00
2:15 PM,77.0,41.0,28,29.89,10.0,SW,11.5,19.6,N/A,,Clear,220,2012-11-25 20:15:00
2:35 PM,78.8,42.8,28,29.89,10.0,SSW,10.4,16.1,N/A,,Clear,210,2012-11-25 20:35:00
2:55 PM,78.8,42.8,28,29.88,10.0,South,11.5,18.4,N/A,,Clear,190,2012-11-25 20:55:00
3:15 PM,77.0,42.8,29,29.88,10.0,South,12.7,20.7,N/A,,Clear,190,2012-11-25 21:15:00
3:35 PM,78.8,42.8,28,29.87,10.0,SSW,13.8,18.4,N/A,,Clear,200,2012-11-25 21:35:00
3:55 PM,78.8,42.8,28,29.87,10.0,SSW,12.7,-,N/A,,Clear,210,2012-11-25 21:55:00
4:15 PM,77.0,42.8,29,29.87,10.0,SSW,15.0,20.7,N/A,,Clear,200,2012-11-25 22:15:00
4:35 PM,77.0,42.8,29,29.87,10.0,SSW,9.2,-,N/A,,Clear,200,2012-11-25 22:35:00
4:55 PM,77.0,42.8,29,29.87,10.0,SSW,6.9,-,N/A,,Clear,200,2012-11-25 22:55:00
5:15 PM,75.2,42.8,31,29.87,10.0,South,5.8,-,N/A,,Clear,190,2012-11-25 23:15:00
5:35 PM,71.6,42.8,35,29.87,10.0,South,3.5,-,N/A,,Clear,170,2012-11-25 23:35:00
5:55 PM,69.8,44.6,40,29.87,10.0,SSE,3.5,-,N/A,,Clear,160,2012-11-25 23:55:00
6:15 PM,68.0,44.6,43,29.87,10.0,South,6.9,-,N/A,,Clear,170,2012-11-26 00:15:00
6:35 PM,68.0,46.4,46,29.87,10.0,South,4.6,-,N/A,,Clear,170,2012-11-26 00:35:00
6:55 PM,68.0,46.4,46,29.87,10.0,South,6.9,-,N/A,,Clear,170,2012-11-26 00:55:00
7:15 PM,66.2,46.4,49,29.88,10.0,South,6.9,-,N/A,,Clear,180,2012-11-26 01:15:00
7:35 PM,66.2,46.4,49,29.88,10.0,South,6.9,-,N/A,,Clear,180,2012-11-26 01:35:00
7:55 PM,66.2,48.2,52,29.88,10.0,South,11.5,16.1,N/A,,Clear,180,2012-11-26 01:55:00
8:15 PM,64.4,50.0,59,29.89,10.0,South,11.5,16.1,N/A,,Clear,180,2012-11-26 02:15:00
8:35 PM,64.4,50.0,59,29.89,10.0,South,10.4,-,N/A,,Clear,190,2012-11-26 02:35:00
8:55 PM,64.4,50.0,59,29.90,10.0,South,11.5,16.1,N/A,,Clear,190,2012-11-26 02:55:00
9:15 PM,64.4,50.0,59,29.90,10.0,South,9.2,-,N/A,,Clear,180,2012-11-26 03:15:00
9:35 PM,62.6,50.0,63,29.91,10.0,South,10.4,16.1,N/A,,Clear,190,2012-11-26 03:35:00
9:55 PM,62.6,50.0,63,29.91,10.0,South,9.2,-,N/A,,Clear,190,2012-11-26 03:55:00
10:15 PM,62.6,50.0,63,29.92,10.0,South,10.4,-,N/A,,Clear,180,2012-11-26 04:15:00
10:35 PM,60.8,50.0,68,29.92,10.0,South,8.1,-,N/A,,Clear,190,2012-11-26 04:35:00
10:55 PM,60.8,50.0,68,29.92,10.0,South,6.9,-,N/A,,Clear,180,2012-11-26 04:55:00
11:15 PM,60.8,50.0,68,29.92,10.0,South,6.9,-,N/A,,Clear,180,2012-11-26 05:15:00
11:35 PM,59.0,50.0,72,29.92,10.0,South,6.9,-,N/A,,Clear,190,2012-11-26 05:35:00
11:55 PM,57.2,50.0,77,29.92,10.0,South,5.8,-,N/A,,Clear,180,2012-11-26 05:55:00